Weather History for Adana Incirlik AFB, Turkey

Change the Weather History Date:

Wednesday, December 11, 2013

  Actual Average Record
Temperature  
Mean Temperature 44 °F -  
Max Temperature 50 °F 61 °F 78 °F (2005)
Min Temperature 39 °F 44 °F 35 °F (2006)
Degree Days  
Heating Degree Days 20    
Moisture  
Dew Point 18 °F    
Average Humidity 38    
Maximum Humidity 70    
Minimum Humidity 12    
Precipitation  
Precipitation 0.00 in - - ()
Sea Level Pressure  
Sea Level Pressure 29.88 in    
Wind  
Wind Speed 17 mph ()    
Max Wind Speed 26 mph    
Max Gust Speed 38 mph    
Visibility 6.2 miles    
Events      
Averages and records for this station are not official NWS values.
T = Trace of Precipitation, MM = Missing Value Source: Averaged Metar Reports

Daily Weather History Graph

Daily Weather History Graph

Search for Another Location

Airport:

Trip Planner

Search our weather history database for the weather conditions in past years. The results will help you decide how hot, cold, wet, or windy it might be!

Date:

Astronomy

Dec. 11, 2013 Rise Set
Actual Time 6:41 AM EET 4:21 PM EET
Civil Twilight 6:12 AM EET 4:50 PM EET
Nautical Twilight 5:39 AM EET 5:23 PM EET
Astronomical Twilight 5:08 AM EET 5:54 PM EET
Moon 12:37 PM EET (12/11) 12:48 AM EET (12/11)
Length of Visible Light 10h 38m
Length of Day
9h 40m
Waxing Gibbous, 69% of the Moon is Illuminated
Dec 11
Waxing Gibbous
Dec 17
Full
Dec 25
Last Quarter
Jan 1
New
Jan 8
First Quarter

Hourly Weather History & Observations

Time (EET) Temp. Windchill Dew Point Humidity Pressure Visibility Wind Dir Wind Speed Gust Speed Precip Events Conditions
12:20 AM 44.6 °F 37.4 °F 33.8 °F 66% 29.92 in 6.2 mi ENE 16.1 mph - N/A   Overcast
12:50 AM 42.8 °F 35.8 °F 32.0 °F 66% 29.92 in 6.2 mi ENE 13.8 mph - N/A   Overcast
1:20 AM 42.8 °F 35.1 °F 33.8 °F 70% 29.92 in 6.2 mi NE 16.1 mph - N/A   Overcast
1:50 AM 42.8 °F 35.4 °F 32.0 °F 66% 29.92 in 6.2 mi NE 15.0 mph - N/A   Overcast
2:00 AM 43 °F - 32 °F 54% 29.92 in 6 mi NE 15.0 mph - -   Overcast
2:20 AM 42.8 °F 34.5 °F 30.2 °F 61% 29.92 in 6.2 mi NE 18.4 mph - N/A   Overcast
2:50 AM 42.8 °F 34.0 °F 30.2 °F 61% 29.92 in 6.2 mi NE 20.7 mph - N/A   Overcast
3:20 AM 42.8 °F 34.3 °F 28.4 °F 57% 29.89 in 6.2 mi NE 19.6 mph - N/A   Overcast
3:50 AM 42.8 °F 34.8 °F 30.2 °F 61% 29.89 in 6.2 mi NE 17.3 mph - N/A   Overcast
4:20 AM 41.0 °F 31.6 °F 30.2 °F 65% 29.89 in 6.2 mi NE 20.7 mph - N/A   Overcast
4:50 AM 41.0 °F 33.1 °F 30.2 °F 65% 29.89 in 6.2 mi NE 15.0 mph - N/A   Overcast
5:00 AM 41 °F - 31 °F 56% 29.90 in 6 mi NE 15.0 mph - -   Overcast
5:20 AM 41.0 °F 33.5 °F 30.2 °F 65% 29.89 in 6.2 mi NE 13.8 mph - N/A   Overcast
5:50 AM 41.0 °F 32.2 °F 30.2 °F 65% 29.89 in 6.2 mi NE 18.4 mph - N/A   Overcast
6:20 AM 41.0 °F 32.5 °F 30.2 °F 65% 29.89 in 6.2 mi NE 17.3 mph - N/A   Overcast
6:50 AM 41.0 °F 33.9 °F 30.2 °F 65% 29.89 in 6.2 mi NE 12.7 mph - N/A   Overcast
7:20 AM 41.0 °F 33.9 °F 30.2 °F 65% 29.89 in 6.2 mi NE 12.7 mph - N/A   Overcast
7:50 AM 42.8 °F 35.8 °F 28.4 °F 57% 29.89 in 6.2 mi ENE 13.8 mph - N/A   Overcast
8:00 AM 43 °F - 29 °F 45% 29.91 in 6 mi ENE 13.8 mph - -   Overcast
8:20 AM 42.8 °F 35.1 °F 28.4 °F 57% 29.89 in 6.2 mi ENE 16.1 mph - N/A   Overcast
8:50 AM 44.6 °F 36.9 °F 24.8 °F 46% 29.89 in 6.2 mi ENE 18.4 mph - N/A   Overcast
9:20 AM 44.6 °F 36.4 °F 21.2 °F 39% 29.89 in 6.2 mi NE 20.7 mph - N/A   Mostly Cloudy
9:50 AM 46.4 °F 39.5 °F 19.4 °F 34% 29.89 in 6.2 mi ENE 17.3 mph 28.8 mph N/A   Mostly Cloudy
10:20 AM 48.2 °F - 17.6 °F 30% 29.89 in 6.2 mi ENE 20.7 mph - N/A   Mostly Cloudy
10:50 AM 48.2 °F - 14.0 °F 25% 29.89 in 6.2 mi NNE 24.2 mph - N/A   Mostly Cloudy
11:00 AM 48 °F - 15 °F 15% 29.89 in 6 mi NNE 24.2 mph - -   Scattered Clouds
11:20 AM 48.2 °F - 14.0 °F 25% 29.86 in 6.2 mi NNE 25.3 mph - N/A   Mostly Cloudy
11:50 AM 48.2 °F - 14.0 °F 25% 29.83 in 6.2 mi NNE 25.3 mph - N/A   Mostly Cloudy
12:20 PM 50.0 °F - 14.0 °F 24% 29.83 in 6.2 mi NNE 20.7 mph 32.2 mph N/A   Mostly Cloudy
12:50 PM 50.0 °F - 14.0 °F 24% 29.83 in 6.2 mi NNE 20.7 mph 32.2 mph N/A   Mostly Cloudy
1:20 PM 50.0 °F - 14.0 °F 24% 29.80 in 6.2 mi NNE 23.0 mph 34.5 mph N/A   Mostly Cloudy
1:50 PM 48.2 °F - 12.2 °F 24% 29.83 in 6.2 mi NNE 23.0 mph 34.5 mph N/A   Mostly Cloudy
2:00 PM 49 °F - 12 °F 12% 29.83 in 6 mi NNE 23.0 mph - -   Scattered Clouds
2:20 PM 48.2 °F - 12.2 °F 24% 29.80 in 6.2 mi NNE 25.3 mph 36.8 mph N/A   Mostly Cloudy
2:50 PM 48.2 °F - 10.4 °F 22% 29.80 in 6.2 mi North 26.5 mph 38.0 mph N/A   Mostly Cloudy
3:20 PM 46.4 °F 38.1 °F 10.4 °F 23% 29.83 in 6.2 mi North 24.2 mph 38.0 mph N/A   Mostly Cloudy
3:50 PM 46.4 °F 39.2 °F 10.4 °F 23% 29.83 in 6.2 mi North 18.4 mph 29.9 mph N/A   Mostly Cloudy
4:20 PM 44.6 °F 36.1 °F 10.4 °F 25% 29.83 in 6.2 mi North 21.9 mph - N/A   Mostly Cloudy
4:50 PM 44.6 °F 37.2 °F 10.4 °F 25% 29.83 in 6.2 mi North 17.3 mph 28.8 mph N/A   Mostly Cloudy
5:00 PM 44 °F - 10 °F 13% 29.85 in 6 mi North 17.3 mph - -   Partly Cloudy
5:20 PM 42.8 °F 33.3 °F 10.4 °F 27% 29.86 in 6.2 mi North 24.2 mph - N/A   Mostly Cloudy
5:50 PM 42.8 °F 34.5 °F 10.4 °F 27% 29.86 in 6.2 mi North 18.4 mph 31.1 mph N/A   Mostly Cloudy
6:20 PM 42.8 °F 34.0 °F 10.4 °F 27% 29.89 in 6.2 mi North 20.7 mph - N/A   Mostly Cloudy
6:50 PM 42.8 °F 34.3 °F 10.4 °F 27% 29.89 in 6.2 mi North 19.6 mph - N/A   Mostly Cloudy
7:20 PM 42.8 °F 33.8 °F 8.6 °F 25% 29.89 in 6.2 mi North 21.9 mph 33.4 mph N/A   Mostly Cloudy
7:50 PM 42.8 °F 34.5 °F 8.6 °F 25% 29.89 in 6.2 mi North 18.4 mph 31.1 mph N/A   Mostly Cloudy
8:00 PM 42 °F - 9 °F 13% 29.90 in 6 mi North 18.4 mph - -   Partly Cloudy
8:20 PM 41.0 °F 32.2 °F 8.6 °F 26% 29.89 in 6.2 mi North 18.4 mph 31.1 mph N/A   Mostly Cloudy
8:50 PM 41.0 °F 32.8 °F 8.6 °F 26% 29.89 in 6.2 mi North 16.1 mph - N/A   Mostly Cloudy
9:20 PM 41.0 °F 32.5 °F 8.6 °F 26% 29.89 in 6.2 mi North 17.3 mph - N/A   Mostly Cloudy
9:50 PM 41.0 °F 31.6 °F 6.8 °F 24% 29.89 in 6.2 mi North 20.7 mph - N/A   Mostly Cloudy
10:20 PM 41.0 °F 31.6 °F 6.8 °F 24% 29.89 in 6.2 mi North 20.7 mph - N/A   Mostly Cloudy
10:50 PM 41.0 °F 31.9 °F 5.0 °F 23% 29.89 in 6.2 mi North 19.6 mph - N/A   Mostly Cloudy
11:00 PM 40 °F - 5 °F 12% 29.90 in 6 mi North 19.6 mph - -   Partly Cloudy
11:20 PM 39.2 °F 29.3 °F 5.0 °F 24% 29.89 in 6.2 mi North 20.7 mph - N/A   Mostly Cloudy
11:50 PM 39.2 °F 29.6 °F 5.0 °F 24% 29.89 in 6.2 mi North 19.6 mph - N/A   Mostly Cloudy